Location: Brabourne
(51.1333°N, 1.0000°E)
Time: 06:49:21
(UTC+00:00)

CZ-4C R/B - Pass Details

Date: 20 June 2021
Orbit: 464 x 632 km, 98.0° (Epoch: 02 August)

Event Time Altitude Azimuth Distance (km) Brightness Sun altitude
Rises 02:21:16 0° 155° (SSE) 2,494 6.4 -9.0°
Reaches altitude 10° 02:23:19 10° 151° (SSE) 1,618 5.4 -8.8°
Maximum altitude 02:26:42 58° 72° (ENE) 549 3.6 -8.5°
Drops below altitude 10° 02:30:09 10° 353° (N) 1,644 6.5 -8.2°
Sets 02:32:15 0° 349° (N) 2,539 7.4 -8.0°
